Tracking 31027 objects as of 19-Jul-2025
HD Live streaming from Space Station
objects crossing your sky now

SL-8 DEB

Track SL-8 DEB now!
10-day predictions


NORAD ID: 27769
Int'l Code: 2002-054E
Perigee: 617.7 km
Apogee: 659.7 km
Inclination: 98.3 °
Period: 97.3 minutes
Semi major axis: 7009 km
RCS: 0.0082 m2 (small)
Launch date: November 28, 2002
Source: Commonwealth of Independent States (former USSR) (CIS)
Launch site: PLESETSK MISSILE AND SPACE COMPLEX (PKMTR)

Note: This is SATELLITE DEBRIS
Your satellite tracking list
COSMOS 2251 DEB
Track 1 satellite(s)




NASA's NSSDC Master Catalog

Two Line Element Set (TLE):
1 27769U 02054E   25199.32211869  .00002530  00000-0  34507-3 0  9992
2 27769  98.2709  58.0556 0029937  61.6549 298.7675 14.79299910208238
Source of the keplerian elements: AFSPC